Weather History for Crescent City, CA

Change the Weather History Date:

Wednesday, January 1, 2014

  Actual Average Record
Temperature  
Mean Temperature 45 °F 48 °F  
Max Temperature 56 °F 55 °F 67 °F (1981)
Min Temperature 34 °F 41 °F 25 °F (1942)
Degree Days  
Heating Degree Days 20 17  
Month to date heating degree days 20 17  
Since 1 July heating degree days 2257 2173  
Cooling Degree Days 0 0  
Month to date cooling degree days 0 0  
Year to date cooling degree days 0 0  
Moisture  
Dew Point 39 °F    
Average Humidity 81    
Maximum Humidity 100    
Minimum Humidity 61    
Precipitation  
Precipitation 0.00 in 0.48 in 2.07 in (1997)
Month to date precipitation 0.00 0.48  
Year to date precipitation 0.00 0.48  
Since 1 July precipitation 8.99 27.58  
Snow  
Snow 0.00 in - - ()
Month to date snowfall 0.0  
Since 1 July snowfall 0.0  
Snow Depth 0.00 in    
Sea Level Pressure  
Sea Level Pressure 30.22 in    
Wind  
Wind Speed 3 mph (NNW)    
Max Wind Speed 10 mph    
Max Gust Speed 13 mph    
Visibility 5 miles    
Events Fog    
T = Trace of Precipitation, MM = Missing Value Source: NWS Daily Summary

Daily Weather History Graph

Daily Weather History Graph

Search for Another Location

Airport:

Trip Planner

Search our weather history database for the weather conditions in past years. The results will help you decide how hot, cold, wet, or windy it might be!

Date:

Astronomy

Jan. 01, 2014 Rise Set
Actual Time 7:44 AM PST 4:57 PM PST
Civil Twilight 7:12 AM PST 5:28 PM PST
Nautical Twilight 6:37 AM PST 6:03 PM PST
Astronomical Twilight 6:04 AM PST 6:37 PM PST
Moon 7:38 AM PST (1/1) 5:50 PM PST (1/1)
Length of Visible Light 10h 15m
Length of Day
9h 12m
New Moon, 0% of the Moon is Illuminated
Jan 1
New Moon
Jan 7
First Quarter
Jan 15
Full
Jan 23
Last Quarter
Jan 30
New

Hourly Weather History & Observations

Time (PST) Temp. Windchill Dew Point Humidity Pressure Visibility Wind Dir Wind Speed Gust Speed Precip Events Conditions
12:56 AM 41.0 °F - 39.0 °F 93% 30.25 in 0.8 mi Calm Calm - N/A   Mist
1:56 AM 37.9 °F - 37.0 °F 97% 30.23 in 1.0 mi Calm Calm - N/A   Mist
2:10 AM 37.0 °F 33.3 °F 36.0 °F 96% 30.24 in 0.2 mi West 4.6 mph - N/A Fog Fog
2:56 AM 42.1 °F - 42.1 °F 100% 30.26 in 0.2 mi Calm Calm - N/A Fog Fog
3:56 AM 39.9 °F 37.8 °F 39.9 °F 100% 30.25 in 0.2 mi ENE 3.5 mph - N/A Fog Fog
4:37 AM 37.0 °F - 35.1 °F 93% 30.23 in 1.5 mi Calm Calm - N/A   Mostly Cloudy
4:40 AM 37.0 °F - 36.0 °F 96% 30.23 in 3.0 mi Calm Calm - N/A   Scattered Clouds
4:56 AM 37.0 °F 34.5 °F 36.0 °F 96% 30.24 in 8.0 mi West 3.5 mph - N/A   Partly Cloudy
5:10 AM 37.0 °F - 36.0 °F 96% 30.24 in 2.0 mi Calm Calm - N/A   Scattered Clouds
5:21 AM 37.0 °F - 36.0 °F 96% 30.23 in 1.8 mi Calm Calm - N/A   Mostly Cloudy
5:33 AM 36.0 °F - 36.0 °F 100% 30.23 in 1.5 mi Calm Calm - N/A   Partly Cloudy
5:49 AM 35.1 °F - 35.1 °F 100% 30.23 in 2.5 mi Calm Calm - N/A   Scattered Clouds
5:56 AM 35.1 °F 32.2 °F 34.0 °F 96% 30.24 in 3.0 mi NE 3.5 mph - N/A   Mostly Cloudy
6:04 AM 35.1 °F - 35.1 °F 100% 30.23 in 3.0 mi Calm Calm - N/A   Scattered Clouds
6:17 AM 36.0 °F 33.3 °F 35.1 °F 97% 30.23 in 2.0 mi NE 3.5 mph - N/A   Partly Cloudy
6:56 AM 36.0 °F - 35.1 °F 97% 30.23 in 5.0 mi Calm Calm - N/A   Clear
7:56 AM 34.0 °F - 34.0 °F 100% 30.23 in 4.0 mi Calm Calm - N/A   Clear
8:41 AM 39.0 °F - 37.9 °F 96% 30.25 in 2.0 mi Calm Calm - N/A   Clear
8:56 AM 39.9 °F 37.8 °F 39.9 °F 100% 30.25 in 1.8 mi SE 3.5 mph - N/A   Clear
9:03 AM 42.1 °F - 41.0 °F 96% 30.25 in 3.0 mi Calm Calm - N/A   Clear
9:56 AM 48.0 °F - 43.0 °F 83% 30.26 in 10.0 mi WNW 3.5 mph - N/A   Clear
10:56 AM 51.1 °F - 45.0 °F 80% 30.24 in 7.0 mi West 4.6 mph - N/A   Clear
11:56 AM 51.1 °F - 42.1 °F 71% 30.22 in 10.0 mi North 3.5 mph - N/A   Clear
12:56 PM 55.0 °F - 42.1 °F 62% 30.19 in 8.0 mi Variable 3.5 mph - N/A   Clear
1:56 PM 52.0 °F - 43.0 °F 71% 30.19 in 9.0 mi WNW 10.4 mph - N/A   Clear
2:56 PM 51.1 °F - 45.0 °F 80% 30.18 in 10.0 mi NNW 5.8 mph - N/A   Clear
3:56 PM 52.0 °F - 39.9 °F 63% 30.18 in 10.0 mi North 5.8 mph - N/A   Clear
4:56 PM 48.0 °F - 41.0 °F 77% 30.19 in 10.0 mi NW 4.6 mph - N/A   Clear
5:05 PM 46.0 °F 43.9 °F 42.1 °F 86% 30.18 in 1.8 mi NNW 4.6 mph - N/A   Clear
5:19 PM 46.9 °F - 43.0 °F 86% 30.19 in 3.0 mi North 4.6 mph - N/A   Clear
5:56 PM 46.9 °F - 43.0 °F 86% 30.19 in 10.0 mi NNE 3.5 mph - N/A   Clear
6:56 PM 45.0 °F - 42.1 °F 90% 30.18 in 10.0 mi Calm Calm - N/A   Clear
7:56 PM 41.0 °F - 39.0 °F 93% 30.18 in 9.0 mi Calm Calm - N/A   Clear
8:56 PM 42.1 °F - 39.9 °F 92% 30.18 in 10.0 mi Calm Calm - N/A   Clear
9:56 PM 39.9 °F 37.8 °F 37.9 °F 93% 30.19 in 4.0 mi East 3.5 mph - N/A   Clear
10:56 PM 39.0 °F - 36.0 °F 89% 30.19 in 7.0 mi Calm Calm - N/A   Clear
11:56 PM 37.9 °F - 36.0 °F 93% 30.21 in 7.0 mi Calm Calm - N/A   Clear